Location: Bambrugge
(50.9212°N, 3.9299°E)
Time: 04:13:44
(UTC+00:00)

Cosmos 1400 Rocket - Pass Details

Date: 23 May 2024
Orbit: 501 x 544 km, 81.2° (Epoch: 21 June)

Event Time Altitude Azimuth Distance (km) Brightness Sun altitude
Exits shadow 00:33:24 40° 202° (SSW) 814 3.2 -17.5°
Maximum altitude 00:34:46 80° 283° (WNW) 560 2.8 -17.5°
Drops below altitude 10° 00:38:47 10° 11° (N) 1,817 6.8 -17.3°
Sets 00:40:57 0° 12° (NNE) 2,709 8.1 -17.2°
